Weather History for Page, AZ

Change the Weather History Date:

Monday, April 30, 2012

  Actual Average Record
Temperature  
Mean Temperature 67 °F -  
Max Temperature 82 °F 72 °F 90 °F (1959)
Min Temperature 52 °F 48 °F 31 °F (1967)
Cooling Degree Days 2    
Growing Degree Days 17 (Base 50)    
Moisture  
Dew Point 16 °F    
Average Humidity 14    
Maximum Humidity 30    
Minimum Humidity 4    
Precipitation  
Precipitation 0.00 in - - ()
Sea Level Pressure  
Sea Level Pressure 29.81 in    
Wind  
Wind Speed 3 mph (SW)    
Max Wind Speed 9 mph    
Max Gust Speed 18 mph    
Visibility 10 miles    
Events      
Averages and records for this station are not official NWS values.
T = Trace of Precipitation, MM = Missing Value Source: NWS Daily Summary

Daily Weather History Graph

Daily Weather History Graph

Search for Another Location

Airport:

Trip Planner

Search our weather history database for the weather conditions in past years. The results will help you decide how hot, cold, wet, or windy it might be!

Date:

Astronomy

Apr. 30, 2012 Rise Set
Actual Time 5:32 AM MST 7:14 PM MST
Civil Twilight 5:04 AM MST 7:42 PM MST
Nautical Twilight 4:30 AM MST 8:15 PM MST
Astronomical Twilight 3:55 AM MST 8:51 PM MST
Moon 1:23 PM MST (4/30) 1:49 AM MST (4/30)
Length of Visible Light 14h 37m
Length of Day
13h 42m
Waxing Gibbous, 65% of the Moon is Illuminated
Apr 30
Waxing Gibbous
May 5
Full
May 12
Last Quarter
May 20
New
May 28
First Quarter

Hourly Weather History & Observations

Time (MST) Temp. Dew Point Humidity Pressure Visibility Wind Dir Wind Speed Gust Speed Precip Events Conditions
12:53 AM 57.9 °F 17.1 °F 20% 30.00 in 10.0 mi Calm Calm - N/A   Clear
1:53 AM 59.0 °F 17.1 °F 20% 29.86 in 10.0 mi SSW 4.6 mph - N/A   Clear
2:53 AM 57.0 °F 17.1 °F 21% 29.87 in 10.0 mi SSW 4.6 mph - N/A   Clear
3:53 AM 55.0 °F 17.1 °F 23% 29.88 in 10.0 mi Calm Calm - N/A   Clear
4:53 AM 53.1 °F 19.0 °F 26% 29.89 in 10.0 mi Calm Calm - N/A   Clear
5:53 AM 53.1 °F 21.9 °F 30% 29.91 in 10.0 mi Calm Calm - N/A   Clear
6:53 AM 57.9 °F 19.9 °F 23% 29.92 in 10.0 mi Calm Calm - N/A   Clear
7:53 AM 62.1 °F 19.0 °F 19% 29.92 in 10.0 mi East 3.5 mph - N/A   Clear
8:53 AM 63.0 °F 19.9 °F 19% 29.92 in 10.0 mi North 5.8 mph - N/A   Clear
9:53 AM 66.9 °F 19.0 °F 16% 29.91 in 10.0 mi NW 3.5 mph - N/A   Clear
10:53 AM 72.0 °F 19.0 °F 13% 29.88 in 10.0 mi NE 8.1 mph - N/A   Clear
11:53 AM 75.0 °F 18.0 °F 12% 29.86 in 10.0 mi East 5.8 mph - N/A   Clear
12:53 PM 79.0 °F 15.1 °F 9% 29.82 in 10.0 mi ENE 5.8 mph - N/A   Clear
1:53 PM 80.1 °F 14.0 °F 8% 29.78 in 10.0 mi Variable 3.5 mph - N/A   Clear
2:53 PM 81.0 °F 14.0 °F 8% 29.75 in 10.0 mi Variable 5.8 mph - N/A   Clear
3:53 PM 81.0 °F 14.0 °F 8% 29.73 in 10.0 mi Calm Calm - N/A   Clear
4:53 PM 82.0 °F 14.0 °F 8% 29.71 in 10.0 mi SW 6.9 mph - N/A   Clear
5:53 PM 80.1 °F 15.1 °F 9% 29.70 in 10.0 mi WSW 9.2 mph - N/A   Clear
6:53 PM 79.0 °F 16.0 °F 9% 29.69 in 10.0 mi WSW 8.1 mph 18.4 mph N/A   Clear
7:53 PM 77.0 °F 15.1 °F 10% 29.70 in 10.0 mi West 9.2 mph - N/A   Clear
8:53 PM 75.0 °F 12.0 °F 9% 29.72 in 10.0 mi WSW 5.8 mph - N/A   Clear
9:53 PM 73.9 °F 12.0 °F 9% 29.71 in 10.0 mi SW 4.6 mph - N/A   Clear
10:53 PM 70.0 °F 14.0 °F 12% 29.70 in 10.0 mi SSW 4.6 mph - N/A   Clear
11:53 PM 68.0 °F 15.1 °F 13% 29.69 in 10.0 mi South 6.9 mph - N/A   Clear